Time,TemperatureF,DewpointF,PressureIn,WindDirection,WindDirectionDegrees,WindSpeedMPH,WindSpeedGustMPH,Humidity,HourlyPrecipIn,Conditions,Clouds,dailyrainin,SolarRadiationWatts/m^2,SoftwareType,DateUTC
2013-10-26 00:00:00,49.8,38.1,30.08,SSE,167,9.0,19.0,64,0.00,,---,0.00,0.00,VWS V14.01,2013-10-26 05:00:00,
2013-10-26 00:03:00,49.8,38.1,30.08,SSW,193,4.0,13.0,64,0.00,,---,0.00,0.00,VWS V14.01,2013-10-26 05:03:00,
2013-10-26 00:08:00,49.6,37.9,30.08,South,176,7.0,13.0,64,0.00,,---,0.00,0.00,VWS V14.01,2013-10-26 05:08:00,
2013-10-26 00:13:00,49.5,38.2,30.08,SSW,205,6.0,13.0,65,0.00,,---,0.00,0.00,VWS V14.01,2013-10-26 05:13:00,
2013-10-26 00:18:00,49.5,38.2,30.08,SSW,194,3.0,13.0,65,0.00,,---,0.00,0.00,VWS V14.01,2013-10-26 05:18:00,
2013-10-26 00:23:00,49.5,38.2,30.07,SW,215,6.0,13.0,65,0.00,,---,0.00,0.00,VWS V14.01,2013-10-26 05:23:00,
2013-10-26 00:28:00,49.5,38.2,30.07,SSW,204,5.0,14.0,65,0.00,,---,0.00,0.00,VWS V14.01,2013-10-26 05:28:00,
2013-10-26 00:30:00,50.2,38.1,30.08,SSW,207,13.0,18.0,63,0.00,,---,0.00,0.00,VWS V14.01,2013-10-26 05:30:00,
2013-10-26 00:33:00,49.4,38.1,30.07,SW,214,9.0,14.0,65,0.00,,---,0.00,0.00,VWS V14.01,2013-10-26 05:33:00,
2013-10-26 00:38:00,49.4,38.5,30.07,SSW,201,8.0,14.0,66,0.00,,---,0.00,0.00,VWS V14.01,2013-10-26 05:38:00,
2013-10-26 00:43:00,49.2,38.3,30.06,South,177,6.0,14.0,66,0.00,,---,0.00,0.00,VWS V14.01,2013-10-26 05:43:00,
2013-10-26 00:48:00,49.2,38.3,30.06,SW,214,6.0,14.0,66,0.00,,---,0.00,0.00,VWS V14.01,2013-10-26 05:48:00,
2013-10-26 00:53:00,49.2,38.3,30.06,SSW,201,9.0,14.0,66,0.00,,---,0.00,0.00,VWS V14.01,2013-10-26 05:53:00,
2013-10-26 00:58:00,49.2,38.3,30.06,South,173,9.0,14.0,66,0.00,,---,0.00,0.00,VWS V14.01,2013-10-26 05:58:00,
2013-10-26 01:00:00,49.2,38.7,30.05,SSW,198,9.0,14.0,67,0.00,,---,0.00,0.00,VWS V14.01,2013-10-26 06:00:00,
2013-10-26 01:03:00,49.1,38.6,30.05,South,183,7.0,10.0,67,0.00,,---,0.00,0.00,VWS V14.01,2013-10-26 06:03:00,
2013-10-26 01:08:00,49.1,38.6,30.05,South,184,5.0,16.0,67,0.00,,---,0.00,0.00,VWS V14.01,2013-10-26 06:08:00,
2013-10-26 01:13:00,48.9,38.4,30.05,SSW,193,9.0,16.0,67,0.00,,---,0.00,0.00,VWS V14.01,2013-10-26 06:13:00,
2013-10-26 01:18:00,48.9,38.8,30.05,South,184,4.0,16.0,68,0.00,,---,0.00,0.00,VWS V14.01,2013-10-26 06:18:00,
2013-10-26 01:23:00,48.9,38.8,30.05,SSW,208,6.0,16.0,68,0.00,,---,0.00,0.00,VWS V14.01,2013-10-26 06:23:00,
2013-10-26 01:28:00,48.9,38.8,30.05,SSW,204,7.0,16.0,68,0.00,,---,0.00,0.00,VWS V14.01,2013-10-26 06:28:00,
2013-10-26 01:30:00,48.9,38.8,30.05,SSE,167,8.0,16.0,68,0.00,,---,0.00,0.00,VWS V14.01,2013-10-26 06:30:00,
2013-10-26 01:33:00,48.9,38.8,30.05,SSW,205,10.0,12.0,68,0.00,,---,0.00,0.00,VWS V14.01,2013-10-26 06:33:00,
2013-10-26 01:38:00,48.8,39.1,30.05,SSW,209,8.0,12.0,69,0.00,,---,0.00,0.00,VWS V14.01,2013-10-26 06:38:00,
2013-10-26 01:43:00,48.9,39.2,30.05,SSW,208,10.0,16.0,69,0.00,,---,0.00,0.00,VWS V14.01,2013-10-26 06:43:00,
2013-10-26 01:48:00,49.1,39.4,30.05,SW,226,7.0,16.0,69,0.00,,---,0.00,0.00,VWS V14.01,2013-10-26 06:48:00,
2013-10-26 01:53:00,49.1,39.4,30.04,SSW,199,7.0,16.0,69,0.00,,---,0.00,0.00,VWS V14.01,2013-10-26 06:53:00,
2013-10-26 01:58:00,49.1,39.4,30.04,SSW,195,5.0,16.0,69,0.00,,---,0.00,0.00,VWS V14.01,2013-10-26 06:58:00,
2013-10-26 02:00:00,49.1,39.4,30.04,SSW,192,5.0,16.0,69,0.00,,---,0.00,0.00,VWS V14.01,2013-10-26 07:00:00,
2013-10-26 02:03:00,49.1,39.4,30.04,SSW,198,3.0,8.0,69,0.00,,---,0.00,0.00,VWS V14.01,2013-10-26 07:03:00,
2013-10-26 02:08:00,49.1,39.4,30.04,SSW,207,3.0,9.0,69,0.00,,---,0.00,0.00,VWS V14.01,2013-10-26 07:08:00,
2013-10-26 02:13:00,49.1,39.8,30.04,SSW,201,6.0,9.0,70,0.00,,---,0.00,0.00,VWS V14.01,2013-10-26 07:13:00,
2013-10-26 02:18:00,49.1,39.8,30.04,SSW,201,5.0,10.0,70,0.00,,---,0.00,0.00,VWS V14.01,2013-10-26 07:18:00,
2013-10-26 02:23:00,48.9,39.6,30.04,South,191,5.0,10.0,70,0.00,,---,0.00,0.00,VWS V14.01,2013-10-26 07:23:00,
2013-10-26 02:28:00,48.9,39.6,30.04,SSW,207,6.0,10.0,70,0.00,,---,0.00,0.00,VWS V14.01,2013-10-26 07:28:00,
2013-10-26 02:30:00,48.9,39.6,30.04,SSW,195,6.0,10.0,70,0.00,,---,0.00,0.00,VWS V14.01,2013-10-26 07:30:00,
2013-10-26 02:33:00,48.9,39.9,30.04,SSW,198,4.0,7.0,71,0.00,,---,0.00,0.00,VWS V14.01,2013-10-26 07:33:00,
2013-10-26 02:38:00,48.8,39.8,30.04,SSW,205,4.0,8.0,71,0.00,,---,0.00,0.00,VWS V14.01,2013-10-26 07:38:00,
2013-10-26 02:43:00,48.6,39.6,30.04,SSW,207,5.0,8.0,71,0.00,,---,0.00,0.00,VWS V14.01,2013-10-26 07:43:00,
2013-10-26 02:48:00,48.6,40.0,30.04,South,188,7.0,8.0,72,0.00,,---,0.00,0.00,VWS V14.01,2013-10-26 07:48:00,
2013-10-26 02:53:00,48.8,40.2,30.04,SSW,200,5.0,9.0,72,0.00,,---,0.00,0.00,VWS V14.01,2013-10-26 07:53:00,
2013-10-26 02:58:00,48.8,40.2,30.04,South,182,4.0,9.0,72,0.00,,---,0.00,0.00,VWS V14.01,2013-10-26 07:58:00,
2013-10-26 03:00:00,49.1,39.4,30.04,SSW,192,5.0,16.0,69,0.00,,---,0.00,0.00,VWS V14.01,2013-10-26 08:00:00,
2013-10-26 03:03:00,48.8,40.2,30.04,SSW,201,5.0,5.0,72,0.00,,---,0.00,0.00,VWS V14.01,2013-10-26 08:03:00,
2013-10-26 03:08:00,48.8,40.2,30.04,South,186,5.0,5.0,72,0.00,,---,0.00,0.00,VWS V14.01,2013-10-26 08:08:00,
2013-10-26 03:13:00,48.8,40.2,30.04,South,186,1.0,5.0,72,0.00,,---,0.00,0.00,VWS V14.01,2013-10-26 08:13:00,
2013-10-26 03:18:00,48.6,40.0,30.04,South,186,0.0,5.0,72,0.00,,---,0.00,0.00,VWS V14.01,2013-10-26 08:18:00,
2013-10-26 03:23:00,48.5,40.2,30.04,South,186,2.0,5.0,73,0.00,,---,0.00,0.00,VWS V14.01,2013-10-26 08:23:00,
2013-10-26 03:27:00,48.3,40.1,30.04,South,186,4.0,5.0,73,0.00,,---,0.00,0.00,VWS V14.01,2013-10-26 08:27:00,
2013-10-26 03:30:00,48.9,39.6,30.04,SSW,195,6.0,10.0,70,0.00,,---,0.00,0.00,VWS V14.01,2013-10-26 08:30:00,
2013-10-26 03:32:00,48.2,40.3,30.03,South,186,3.0,5.0,74,0.00,,---,0.00,0.00,VWS V14.01,2013-10-26 08:32:00,
2013-10-26 03:38:00,48.0,40.1,30.04,South,186,2.0,5.0,74,0.00,,---,0.00,0.00,VWS V14.01,2013-10-26 08:38:00,
2013-10-26 03:43:00,48.0,40.5,30.03,South,186,2.0,5.0,75,0.00,,---,0.00,0.00,VWS V14.01,2013-10-26 08:43:00,
2013-10-26 03:48:00,47.9,40.4,30.03,South,186,3.0,5.0,75,0.00,,---,0.00,0.00,VWS V14.01,2013-10-26 08:48:00,
2013-10-26 03:53:00,47.9,40.4,30.03,South,186,4.0,5.0,75,0.00,,---,0.00,0.00,VWS V14.01,2013-10-26 08:53:00,
2013-10-26 03:58:00,47.7,40.2,30.03,South,186,3.0,6.0,75,0.00,,---,0.00,0.00,VWS V14.01,2013-10-26 08:58:00,
2013-10-26 04:00:00,47.7,40.2,30.03,South,186,3.0,6.0,75,0.00,,---,0.00,0.00,VWS V14.01,2013-10-26 09:00:00,
2013-10-26 04:03:00,47.7,40.2,30.03,South,186,1.0,4.0,75,0.00,,---,0.00,0.00,VWS V14.01,2013-10-26 09:03:00,
2013-10-26 04:08:00,47.9,40.4,30.03,South,186,2.0,4.0,75,0.00,,---,0.00,0.00,VWS V14.01,2013-10-26 09:08:00,
2013-10-26 04:13:00,47.9,40.7,30.03,South,186,3.0,5.0,76,0.00,,---,0.00,0.00,VWS V14.01,2013-10-26 09:13:00,
2013-10-26 04:18:00,47.7,40.5,30.03,South,186,2.0,5.0,76,0.00,,---,0.00,0.00,VWS V14.01,2013-10-26 09:18:00,
2013-10-26 04:23:00,47.6,40.4,30.03,South,186,2.0,5.0,76,0.00,,---,0.00,0.00,VWS V14.01,2013-10-26 09:23:00,
2013-10-26 04:28:00,47.4,40.6,30.03,South,186,2.0,5.0,77,0.00,,---,0.00,0.00,VWS V14.01,2013-10-26 09:28:00,
2013-10-26 04:30:00,47.4,40.6,30.03,South,186,0.0,5.0,77,0.00,,---,0.00,0.00,VWS V14.01,2013-10-26 09:30:00,
2013-10-26 04:33:00,47.4,40.6,30.03,South,186,0.0,0.0,77,0.00,,---,0.00,0.00,VWS V14.01,2013-10-26 09:33:00,
2013-10-26 04:38:00,47.3,40.1,30.03,South,186,0.0,2.0,76,0.00,,---,0.00,0.00,VWS V14.01,2013-10-26 09:38:00,
2013-10-26 04:43:00,46.8,40.3,30.03,South,186,2.0,2.0,78,0.00,,---,0.00,0.00,VWS V14.01,2013-10-26 09:43:00,
2013-10-26 04:48:00,46.5,40.3,30.03,South,186,0.0,2.0,79,0.00,,---,0.00,0.00,VWS V14.01,2013-10-26 09:48:00,
2013-10-26 04:53:00,46.5,40.3,30.03,South,186,0.0,2.0,79,0.00,,---,0.00,0.00,VWS V14.01,2013-10-26 09:53:00,
2013-10-26 04:58:00,46.4,40.2,30.03,South,186,0.0,2.0,79,0.00,,---,0.00,0.00,VWS V14.01,2013-10-26 09:58:00,
2013-10-26 05:00:00,47.7,40.2,30.03,South,186,3.0,6.0,75,0.00,,---,0.00,0.00,VWS V14.01,2013-10-26 10:00:00,
2013-10-26 05:03:00,46.1,40.0,30.03,South,186,0.0,0.0,79,0.00,,---,0.00,0.00,VWS V14.01,2013-10-26 10:03:00,
2013-10-26 05:08:00,46.1,40.3,30.04,South,186,0.0,0.0,80,0.00,,---,0.00,0.00,VWS V14.01,2013-10-26 10:08:00,
2013-10-26 05:13:00,46.1,40.3,30.04,South,186,0.0,0.0,80,0.00,,---,0.00,0.00,VWS V14.01,2013-10-26 10:13:00,
2013-10-26 05:18:00,46.1,40.3,30.04,South,186,0.0,0.0,80,0.00,,---,0.00,0.00,VWS V14.01,2013-10-26 10:18:00,
2013-10-26 05:23:00,46.1,40.3,30.04,South,186,0.0,0.0,80,0.00,,---,0.00,0.00,VWS V14.01,2013-10-26 10:23:00,
2013-10-26 05:28:00,46.2,40.4,30.04,South,186,0.0,0.0,80,0.00,,---,0.00,0.00,VWS V14.01,2013-10-26 10:28:00,
2013-10-26 05:30:00,47.4,40.6,30.03,South,186,0.0,5.0,77,0.00,,---,0.00,0.00,VWS V14.01,2013-10-26 10:30:00,
2013-10-26 05:33:00,46.4,40.6,30.04,South,186,0.0,0.0,80,0.00,,---,0.00,0.00,VWS V14.01,2013-10-26 10:33:00,
2013-10-26 05:38:00,46.5,40.7,30.04,South,186,0.0,1.0,80,0.00,,---,0.00,0.00,VWS V14.01,2013-10-26 10:38:00,
2013-10-26 05:43:00,46.5,40.7,30.05,South,186,0.0,1.0,80,0.00,,---,0.00,0.00,VWS V14.01,2013-10-26 10:43:00,
2013-10-26 05:48:00,46.4,40.6,30.05,South,186,0.0,1.0,80,0.00,,---,0.00,0.00,VWS V14.01,2013-10-26 10:48:00,
2013-10-26 05:53:00,46.4,40.6,30.05,South,186,0.0,1.0,80,0.00,,---,0.00,0.00,VWS V14.01,2013-10-26 10:53:00,
2013-10-26 05:58:00,46.4,40.6,30.05,South,186,0.0,2.0,80,0.00,,---,0.00,0.00,VWS V14.01,2013-10-26 10:58:00,
2013-10-26 06:00:00,46.4,40.6,30.05,South,186,0.0,2.0,80,0.00,,---,0.00,0.00,VWS V14.01,2013-10-26 11:00:00,
2013-10-26 06:03:00,46.2,40.1,30.05,South,186,0.0,0.0,79,0.00,,---,0.00,0.00,VWS V14.01,2013-10-26 11:03:00,
2013-10-26 06:08:00,46.0,39.9,30.05,South,186,0.0,0.0,79,0.00,,---,0.00,0.00,VWS V14.01,2013-10-26 11:08:00,
2013-10-26 06:13:00,45.7,39.9,30.05,South,186,0.0,0.0,80,0.00,,---,0.00,0.00,VWS V14.01,2013-10-26 11:13:00,
2013-10-26 06:18:00,45.4,39.6,30.05,South,186,0.0,0.0,80,0.00,,---,0.00,0.00,VWS V14.01,2013-10-26 11:18:00,
2013-10-26 06:23:00,45.2,39.7,30.05,South,186,0.0,0.0,81,0.00,,---,0.00,0.00,VWS V14.01,2013-10-26 11:23:00,
2013-10-26 06:28:00,44.9,39.8,30.05,South,186,0.0,0.0,82,0.00,,---,0.00,0.00,VWS V14.01,2013-10-26 11:28:00,
2013-10-26 06:30:00,46.2,40.4,30.04,South,186,0.0,0.0,80,0.00,,---,0.00,0.00,VWS V14.01,2013-10-26 11:30:00,
2013-10-26 06:33:00,44.8,39.7,30.05,South,186,0.0,0.0,82,0.00,,---,0.00,0.00,VWS V14.01,2013-10-26 11:33:00,
2013-10-26 06:38:00,44.6,39.8,30.05,South,186,0.0,0.0,83,0.00,,---,0.00,0.00,VWS V14.01,2013-10-26 11:38:00,
2013-10-26 06:43:00,44.5,40.0,30.05,South,186,0.0,0.0,84,0.00,,---,0.00,0.00,VWS V14.01,2013-10-26 11:43:00,
2013-10-26 06:48:00,44.3,39.8,30.06,South,186,0.0,0.0,84,0.00,,---,0.00,0.00,VWS V14.01,2013-10-26 11:48:00,
2013-10-26 06:53:00,44.1,39.6,30.06,South,186,0.0,0.0,84,0.00,,---,0.00,0.00,VWS V14.01,2013-10-26 11:53:00,
2013-10-26 06:58:00,43.9,39.4,30.07,South,186,2.0,3.0,84,0.00,,---,0.00,0.00,VWS V14.01,2013-10-26 11:58:00,
2013-10-26 07:00:00,43.9,39.7,30.07,South,186,3.0,3.0,85,0.00,,---,0.00,0.00,VWS V14.01,2013-10-26 12:00:00,
2013-10-26 07:03:00,44.2,40.0,30.07,South,186,3.0,4.0,85,0.00,,---,0.00,0.00,VWS V14.01,2013-10-26 12:03:00,
2013-10-26 07:08:00,44.5,40.3,30.07,WSW,256,2.0,4.0,85,0.00,,---,0.00,0.00,VWS V14.01,2013-10-26 12:08:00,
2013-10-26 07:13:00,44.5,40.0,30.07,WSW,256,1.0,4.0,84,0.00,,---,0.00,0.00,VWS V14.01,2013-10-26 12:13:00,
2013-10-26 07:18:00,44.3,40.1,30.07,WSW,256,1.0,4.0,85,0.00,,---,0.00,0.00,VWS V14.01,2013-10-26 12:18:00,
2013-10-26 07:23:00,44.3,40.1,30.07,NW,311,3.0,5.0,85,0.00,,---,0.00,0.00,VWS V14.01,2013-10-26 12:23:00,
2013-10-26 07:28:00,44.3,40.1,30.08,NW,311,2.0,5.0,85,0.00,,---,0.00,0.00,VWS V14.01,2013-10-26 12:28:00,
2013-10-26 07:30:00,44.9,39.8,30.05,South,186,0.0,0.0,82,0.00,,---,0.00,0.00,VWS V14.01,2013-10-26 12:30:00,
2013-10-26 07:33:00,44.5,40.3,30.08,NW,311,2.0,4.0,85,0.00,,---,0.00,0.00,VWS V14.01,2013-10-26 12:33:00,
2013-10-26 07:38:00,44.5,40.3,30.08,NW,311,2.0,4.0,85,0.00,,---,0.00,0.00,VWS V14.01,2013-10-26 12:38:00,
2013-10-26 07:43:00,44.3,40.1,30.09,NW,311,4.0,4.0,85,0.00,,---,0.00,0.00,VWS V14.01,2013-10-26 12:43:00,
2013-10-26 07:48:00,44.1,39.9,30.09,NW,311,1.0,4.0,85,0.00,,---,0.00,0.00,VWS V14.01,2013-10-26 12:48:00,
2013-10-26 07:53:00,44.1,40.2,30.08,NW,311,0.0,4.0,86,0.00,,---,0.00,5.00,VWS V14.01,2013-10-26 12:53:00,
2013-10-26 07:58:00,43.9,40.0,30.09,NW,311,0.0,4.0,86,0.00,,---,0.00,9.00,VWS V14.01,2013-10-26 12:58:00,
2013-10-26 08:00:00,43.9,39.7,30.07,South,186,3.0,3.0,85,0.00,,---,0.00,0.00,VWS V14.01,2013-10-26 13:00:00,
2013-10-26 08:03:00,43.8,39.9,30.09,NW,311,2.0,3.0,86,0.00,,---,0.00,14.00,VWS V14.01,2013-10-26 13:03:00,
2013-10-26 08:08:00,43.8,39.9,30.09,NW,311,0.0,3.0,86,0.00,,---,0.00,21.00,VWS V14.01,2013-10-26 13:08:00,
2013-10-26 08:13:00,43.8,39.9,30.10,NW,311,2.0,3.0,86,0.00,,---,0.00,33.00,VWS V14.01,2013-10-26 13:13:00,
2013-10-26 08:18:00,43.8,39.9,30.10,NW,311,3.0,4.0,86,0.00,,---,0.00,42.00,VWS V14.01,2013-10-26 13:18:00,
2013-10-26 08:23:00,43.9,40.0,30.10,NW,311,4.0,4.0,86,0.00,,---,0.00,53.00,VWS V14.01,2013-10-26 13:23:00,
2013-10-26 08:28:00,44.1,40.2,30.11,NW,311,2.0,4.0,86,0.00,,---,0.00,62.00,VWS V14.01,2013-10-26 13:28:00,
2013-10-26 08:30:00,44.2,40.3,30.11,NW,311,4.0,4.0,86,0.00,,---,0.00,65.00,VWS V14.01,2013-10-26 13:30:00,
2013-10-26 08:33:00,44.1,39.9,30.11,NW,319,3.0,5.0,85,0.00,,---,0.00,46.00,VWS V14.01,2013-10-26 13:33:00,
2013-10-26 08:38:00,44.1,39.9,30.11,NNW,330,3.0,7.0,85,0.00,,---,0.00,33.00,VWS V14.01,2013-10-26 13:38:00,
2013-10-26 08:43:00,44.1,39.9,30.12,NNW,331,4.0,7.0,85,0.00,,---,0.00,47.00,VWS V14.01,2013-10-26 13:43:00,
2013-10-26 08:48:00,44.1,39.9,30.12,NNW,331,4.0,7.0,85,0.00,,---,0.00,104.00,VWS V14.01,2013-10-26 13:48:00,
2013-10-26 08:53:00,44.3,39.8,30.12,NNW,346,3.0,7.0,84,0.00,,---,0.00,141.00,VWS V14.01,2013-10-26 13:53:00,
2013-10-26 08:58:00,44.8,40.0,30.12,NNW,340,5.0,9.0,83,0.00,,---,0.00,72.00,VWS V14.01,2013-10-26 13:58:00,
2013-10-26 09:00:00,44.9,39.8,30.12,NNW,340,6.0,9.0,82,0.00,,---,0.00,60.00,VWS V14.01,2013-10-26 14:00:00,
2013-10-26 09:03:00,45.2,39.7,30.13,NNW,340,7.0,9.0,81,0.00,,---,0.00,134.00,VWS V14.01,2013-10-26 14:03:00,
2013-10-26 09:08:00,45.8,39.7,30.13,NNW,342,7.0,9.0,79,0.00,,---,0.00,176.00,VWS V14.01,2013-10-26 14:08:00,
2013-10-26 09:13:00,46.1,39.6,30.13,NNW,345,9.0,10.0,78,0.00,,---,0.00,197.00,VWS V14.01,2013-10-26 14:13:00,
2013-10-26 09:18:00,46.2,39.4,30.13,North,355,10.0,11.0,77,0.00,,---,0.00,214.00,VWS V14.01,2013-10-26 14:18:00,
2013-10-26 09:23:00,46.5,39.4,30.14,NNW,335,4.0,11.0,76,0.00,,---,0.00,225.00,VWS V14.01,2013-10-26 14:23:00,
2013-10-26 09:28:00,46.8,39.3,30.14,NNW,348,7.0,11.0,75,0.00,,---,0.00,236.00,VWS V14.01,2013-10-26 14:28:00,
2013-10-26 09:30:00,46.8,39.3,30.14,North,5,8.0,11.0,75,0.00,,---,0.00,16.00,VWS V14.01,2013-10-26 14:30:00,
2013-10-26 09:33:00,47.3,39.5,30.14,NNE,20,4.0,9.0,74,0.00,,---,0.00,251.00,VWS V14.01,2013-10-26 14:33:00,
2013-10-26 09:38:00,47.7,39.5,30.15,NNE,29,5.0,11.0,73,0.00,,---,0.00,265.00,VWS V14.01,2013-10-26 14:38:00,
2013-10-26 09:43:00,47.9,39.3,30.15,North,5,9.0,15.0,72,0.00,,---,0.00,281.00,VWS V14.01,2013-10-26 14:43:00,
2013-10-26 09:48:00,48.5,39.2,30.15,North,5,7.0,15.0,70,0.00,,---,0.00,295.00,VWS V14.01,2013-10-26 14:48:00,
2013-10-26 09:53:00,49.2,38.0,30.15,North,9,8.0,16.0,65,0.00,,---,0.00,313.00,VWS V14.01,2013-10-26 14:53:00,
2013-10-26 09:58:00,49.9,38.2,30.15,North,11,10.0,17.0,64,0.00,,---,0.00,302.00,VWS V14.01,2013-10-26 14:58:00,
2013-10-26 10:00:00,50.1,37.6,30.16,NE,36,9.0,17.0,62,0.00,,---,0.00,330.00,VWS V14.01,2013-10-26 15:00:00,
2013-10-26 10:03:00,50.4,37.0,30.16,North,11,12.0,18.0,60,0.00,,---,0.00,338.00,VWS V14.01,2013-10-26 15:03:00,
2013-10-26 10:08:00,50.4,36.2,30.15,NNE,30,14.0,19.0,58,0.00,,---,0.00,348.00,VWS V14.01,2013-10-26 15:08:00,
2013-10-26 10:13:00,50.7,36.9,30.16,NNE,20,7.0,19.0,59,0.00,,---,0.00,364.00,VWS V14.01,2013-10-26 15:13:00,
2013-10-26 10:18:00,51.0,36.3,30.16,NE,40,6.0,19.0,57,0.00,,---,0.00,376.00,VWS V14.01,2013-10-26 15:18:00,
2013-10-26 10:23:00,51.6,36.9,30.16,NNW,348,10.0,19.0,57,0.00,,---,0.00,387.00,VWS V14.01,2013-10-26 15:23:00,
2013-10-26 10:28:00,51.7,35.6,30.16,NE,34,13.0,20.0,54,0.00,,---,0.00,309.00,VWS V14.01,2013-10-26 15:28:00,
2013-10-26 10:30:00,46.8,39.3,30.14,North,5,8.0,11.0,75,0.00,,---,0.00,16.00,VWS V14.01,2013-10-26 15:30:00,
2013-10-26 10:33:00,52.0,35.9,30.16,North,360,6.0,14.0,54,0.00,,---,0.00,411.00,VWS V14.01,2013-10-26 15:33:00,
2013-10-26 10:38:00,52.6,33.5,30.16,NNW,345,15.0,15.0,48,0.00,,---,0.00,387.00,VWS V14.01,2013-10-26 15:38:00,
2013-10-26 10:43:00,53.3,33.1,30.17,ENE,57,13.0,15.0,46,0.00,,---,0.00,40.00,VWS V14.01,2013-10-26 15:43:00,
2013-10-26 10:48:00,53.5,31.6,30.17,North,9,15.0,25.0,43,0.00,,---,0.00,104.00,VWS V14.01,2013-10-26 15:48:00,
2013-10-26 10:53:00,53.6,31.1,30.17,North,355,12.0,25.0,42,0.00,,---,0.00,459.00,VWS V14.01,2013-10-26 15:53:00,
2013-10-26 10:58:00,54.2,29.8,30.17,NNW,343,14.0,25.0,39,0.00,,---,0.00,450.00,VWS V14.01,2013-10-26 15:58:00,
2013-10-26 11:00:00,54.4,29.3,30.17,NNE,14,14.0,25.0,38,0.00,,---,0.00,345.00,VWS V14.01,2013-10-26 16:00:00,
2013-10-26 11:03:00,54.5,29.4,30.17,NE,49,13.0,18.0,38,0.00,,---,0.00,42.00,VWS V14.01,2013-10-26 16:03:00,
2013-10-26 11:08:00,54.7,29.6,30.17,North,355,12.0,18.0,38,0.00,,---,0.00,139.00,VWS V14.01,2013-10-26 16:08:00,
2013-10-26 11:13:00,54.8,29.7,30.17,NNE,21,9.0,18.0,38,0.00,,---,0.00,494.00,VWS V14.01,2013-10-26 16:13:00,
2013-10-26 11:18:00,55.4,29.6,30.17,ENE,74,11.0,18.0,37,0.00,,---,0.00,504.00,VWS V14.01,2013-10-26 16:18:00,
2013-10-26 11:23:00,55.3,30.1,30.18,North,11,8.0,18.0,38,0.00,,---,0.00,513.00,VWS V14.01,2013-10-26 16:23:00,
2013-10-26 11:28:00,55.9,30.0,30.18,NNE,18,8.0,18.0,37,0.00,,---,0.00,522.00,VWS V14.01,2013-10-26 16:28:00,
2013-10-26 11:30:00,56.0,30.1,30.18,NNE,24,8.0,18.0,37,0.00,,---,0.00,524.00,VWS V14.01,2013-10-26 16:30:00,
2013-10-26 11:33:00,56.0,30.1,30.18,NE,39,7.0,16.0,37,0.00,,---,0.00,531.00,VWS V14.01,2013-10-26 16:33:00,
2013-10-26 11:38:00,56.0,29.4,30.18,NNE,32,14.0,17.0,36,0.00,,---,0.00,540.00,VWS V14.01,2013-10-26 16:38:00,
2013-10-26 11:43:00,56.0,30.1,30.18,NNE,16,11.0,17.0,37,0.00,,---,0.00,545.00,VWS V14.01,2013-10-26 16:43:00,
2013-10-26 11:48:00,56.3,30.4,30.18,NE,51,10.0,17.0,37,0.00,,---,0.00,552.00,VWS V14.01,2013-10-26 16:48:00,
2013-10-26 11:53:00,56.6,29.3,30.18,NW,306,14.0,20.0,35,0.00,,---,0.00,561.00,VWS V14.01,2013-10-26 16:53:00,
2013-10-26 11:58:00,56.7,29.4,30.18,NNE,22,9.0,20.0,35,0.00,,---,0.00,568.00,VWS V14.01,2013-10-26 16:58:00,
2013-10-26 12:00:00,56.9,28.8,30.18,NNW,333,15.0,20.0,34,0.00,,---,0.00,571.00,VWS V14.01,2013-10-26 17:00:00,
2013-10-26 12:03:00,56.7,29.4,30.18,NW,317,2.0,20.0,35,0.00,,---,0.00,575.00,VWS V14.01,2013-10-26 17:03:00,
2013-10-26 12:08:00,56.7,28.7,30.18,NNE,13,10.0,20.0,34,0.00,,---,0.00,582.00,VWS V14.01,2013-10-26 17:08:00,
2013-10-26 12:13:00,56.6,27.9,30.18,North,360,6.0,20.0,33,0.00,,---,0.00,587.00,VWS V14.01,2013-10-26 17:13:00,
2013-10-26 12:18:00,57.3,25.3,30.18,North,355,11.0,20.0,29,0.00,,---,0.00,591.00,VWS V14.01,2013-10-26 17:18:00,
2013-10-26 12:23:00,57.2,23.5,30.18,NNE,15,9.0,20.0,27,0.00,,---,0.00,596.00,VWS V14.01,2013-10-26 17:23:00,
2013-10-26 12:28:00,57.3,24.5,30.18,North,5,7.0,20.0,28,0.00,,---,0.00,601.00,VWS V14.01,2013-10-26 17:28:00,
2013-10-26 12:30:00,57.5,24.7,30.18,NNE,19,11.0,20.0,28,0.00,,---,0.00,601.00,VWS V14.01,2013-10-26 17:30:00,
2013-10-26 12:33:00,57.6,24.8,30.18,NW,315,10.0,17.0,28,0.00,,---,0.00,605.00,VWS V14.01,2013-10-26 17:33:00,
2013-10-26 12:38:00,57.6,23.0,30.18,NNW,329,9.0,20.0,26,0.00,,---,0.00,606.00,VWS V14.01,2013-10-26 17:38:00,
2013-10-26 12:43:00,58.0,24.2,30.17,NNW,344,10.0,20.0,27,0.00,,---,0.00,612.00,VWS V14.01,2013-10-26 17:43:00,
2013-10-26 12:48:00,58.0,22.4,30.17,North,9,16.0,21.0,25,0.00,,---,0.00,617.00,VWS V14.01,2013-10-26 17:48:00,
2013-10-26 12:53:00,57.8,23.2,30.17,North,355,12.0,21.0,26,0.00,,---,0.00,619.00,VWS V14.01,2013-10-26 17:53:00,
2013-10-26 12:58:00,57.8,22.2,30.17,NNW,336,12.0,21.0,25,0.00,,---,0.00,622.00,VWS V14.01,2013-10-26 17:58:00,
2013-10-26 13:00:00,58.1,22.5,30.17,NNE,22,7.0,21.0,25,0.00,,---,0.00,622.00,VWS V14.01,2013-10-26 18:00:00,
2013-10-26 13:03:00,58.1,22.5,30.17,ENE,69,12.0,17.0,25,0.00,,---,0.00,626.00,VWS V14.01,2013-10-26 18:03:00,
2013-10-26 13:08:00,58.4,21.8,30.16,North,5,16.0,20.0,24,0.00,,---,0.00,626.00,VWS V14.01,2013-10-26 18:08:00,
2013-10-26 13:13:00,58.4,22.7,30.16,NNE,12,13.0,20.0,25,0.00,,---,0.00,628.00,VWS V14.01,2013-10-26 18:13:00,
2013-10-26 13:18:00,58.4,22.7,30.16,North,350,13.0,20.0,25,0.00,,---,0.00,628.00,VWS V14.01,2013-10-26 18:18:00,
2013-10-26 13:23:00,59.0,22.3,30.16,NNE,15,13.0,20.0,24,0.00,,---,0.00,629.00,VWS V14.01,2013-10-26 18:23:00,
2013-10-26 13:28:00,58.6,22.9,30.16,North,350,7.0,20.0,25,0.00,,---,0.00,628.00,VWS V14.01,2013-10-26 18:28:00,
2013-10-26 13:30:00,58.7,23.9,30.16,North,5,6.0,20.0,26,0.00,,---,0.00,626.00,VWS V14.01,2013-10-26 18:30:00,
2013-10-26 13:33:00,59.0,22.3,30.16,NE,42,10.0,16.0,24,0.00,,---,0.00,624.00,VWS V14.01,2013-10-26 18:33:00,
2013-10-26 13:38:00,59.3,23.5,30.16,NNW,344,11.0,16.0,25,0.00,,---,0.00,622.00,VWS V14.01,2013-10-26 18:38:00,
2013-10-26 13:43:00,58.9,23.2,30.16,North,350,14.0,20.0,25,0.00,,---,0.00,529.00,VWS V14.01,2013-10-26 18:43:00,
2013-10-26 13:48:00,58.9,23.2,30.16,NNE,19,15.0,20.0,25,0.00,,---,0.00,274.00,VWS V14.01,2013-10-26 18:48:00,
2013-10-26 13:53:00,58.9,23.2,30.16,NNE,26,7.0,20.0,25,0.00,,---,0.00,40.00,VWS V14.01,2013-10-26 18:53:00,
2013-10-26 13:58:00,59.0,22.3,30.15,North,355,14.0,20.0,24,0.00,,---,0.00,33.00,VWS V14.01,2013-10-26 18:58:00,
2013-10-26 14:00:00,59.2,22.5,30.15,NNW,337,6.0,20.0,24,0.00,,---,0.00,33.00,VWS V14.01,2013-10-26 19:00:00,
2013-10-26 14:03:00,59.6,22.8,30.15,North,5,10.0,15.0,24,0.00,,---,0.00,33.00,VWS V14.01,2013-10-26 19:03:00,
2013-10-26 14:08:00,59.6,23.8,30.15,North,360,6.0,21.0,25,0.00,,---,0.00,33.00,VWS V14.01,2013-10-26 19:08:00,
2013-10-26 14:13:00,59.8,23.0,30.15,North,355,10.0,21.0,24,0.00,,---,0.00,33.00,VWS V14.01,2013-10-26 19:13:00,
2013-10-26 14:18:00,59.5,22.7,30.15,NNE,17,8.0,21.0,24,0.00,,---,0.00,32.00,VWS V14.01,2013-10-26 19:18:00,
2013-10-26 14:23:00,59.5,22.7,30.15,NNW,346,12.0,21.0,24,0.00,,---,0.00,32.00,VWS V14.01,2013-10-26 19:23:00,
2013-10-26 14:28:00,59.8,23.9,30.15,NNE,14,10.0,21.0,25,0.00,,---,0.00,32.00,VWS V14.01,2013-10-26 19:28:00,
2013-10-26 14:30:00,59.9,23.0,30.15,North,360,15.0,21.0,24,0.00,,---,0.00,32.00,VWS V14.01,2013-10-26 19:30:00,
2013-10-26 14:33:00,60.1,24.2,30.14,NW,315,6.0,16.0,25,0.00,,---,0.00,32.00,VWS V14.01,2013-10-26 19:33:00,
2013-10-26 14:38:00,59.8,23.9,30.15,NW,314,7.0,16.0,25,0.00,,---,0.00,32.00,VWS V14.01,2013-10-26 19:38:00,
2013-10-26 14:43:00,59.8,23.9,30.14,North,5,3.0,17.0,25,0.00,,---,0.00,32.00,VWS V14.01,2013-10-26 19:43:00,
2013-10-26 14:48:00,59.9,22.0,30.14,North,5,8.0,17.0,23,0.00,,---,0.00,32.00,VWS V14.01,2013-10-26 19:48:00,
2013-10-26 14:53:00,60.1,22.2,30.14,North,5,9.0,17.0,23,0.00,,---,0.00,32.00,VWS V14.01,2013-10-26 19:53:00,
2013-10-26 14:58:00,60.2,22.3,30.14,North,9,13.0,17.0,23,0.00,,---,0.00,32.00,VWS V14.01,2013-10-26 19:58:00,
2013-10-26 15:00:00,59.2,22.5,30.15,NNW,337,6.0,20.0,24,0.00,,---,0.00,33.00,VWS V14.01,2013-10-26 20:00:00,
2013-10-26 15:03:00,60.4,22.5,30.14,North,349,11.0,15.0,23,0.00,,---,0.00,32.00,VWS V14.01,2013-10-26 20:03:00,
2013-10-26 15:08:00,60.4,21.4,30.14,NNE,25,12.0,16.0,22,0.00,,---,0.00,32.00,VWS V14.01,2013-10-26 20:08:00,
2013-10-26 15:13:00,60.4,21.4,30.14,North,5,11.0,16.0,22,0.00,,---,0.00,11.00,VWS V14.01,2013-10-26 20:13:00,
2013-10-26 15:18:00,59.8,20.9,30.14,NNE,17,6.0,19.0,22,0.00,,---,0.00,32.00,VWS V14.01,2013-10-26 20:18:00,
2013-10-26 15:23:00,60.2,22.3,30.13,North,351,7.0,19.0,23,0.00,,---,0.00,32.00,VWS V14.01,2013-10-26 20:23:00,
2013-10-26 15:28:00,60.4,22.5,30.13,North,9,7.0,19.0,23,0.00,,---,0.00,32.00,VWS V14.01,2013-10-26 20:28:00,
2013-10-26 15:30:00,60.2,22.3,30.13,North,5,9.0,19.0,23,0.00,,---,0.00,32.00,VWS V14.01,2013-10-26 20:30:00,
2013-10-26 15:33:00,60.4,23.5,30.13,North,350,6.0,15.0,24,0.00,,---,0.00,32.00,VWS V14.01,2013-10-26 20:33:00,
2013-10-26 15:38:00,60.2,22.3,30.13,NW,325,10.0,16.0,23,0.00,,---,0.00,32.00,VWS V14.01,2013-10-26 20:38:00,
2013-10-26 15:43:00,60.7,22.7,30.13,North,355,15.0,18.0,23,0.00,,---,0.00,32.00,VWS V14.01,2013-10-26 20:43:00,
2013-10-26 15:48:00,60.5,22.5,30.13,NW,307,9.0,18.0,23,0.00,,---,0.00,32.00,VWS V14.01,2013-10-26 20:48:00,
2013-10-26 15:53:00,60.1,22.2,30.13,North,11,12.0,18.0,23,0.00,,---,0.00,32.00,VWS V14.01,2013-10-26 20:53:00,
2013-10-26 15:58:00,59.8,23.0,30.13,NW,307,9.0,18.0,24,0.00,,---,0.00,32.00,VWS V14.01,2013-10-26 20:58:00,
2013-10-26 16:00:00,59.9,24.0,30.13,North,351,12.0,18.0,25,0.00,,---,0.00,32.00,VWS V14.01,2013-10-26 21:00:00,
2013-10-26 16:03:00,60.2,23.3,30.14,NNW,338,9.0,13.0,24,0.00,,---,0.00,32.00,VWS V14.01,2013-10-26 21:03:00,
2013-10-26 16:08:00,59.9,23.0,30.13,North,5,11.0,16.0,24,0.00,,---,0.00,32.00,VWS V14.01,2013-10-26 21:08:00,
2013-10-26 16:13:00,59.8,23.9,30.14,NNW,344,14.0,18.0,25,0.00,,---,0.00,32.00,VWS V14.01,2013-10-26 21:13:00,
2013-10-26 16:18:00,60.1,24.2,30.14,NNE,19,11.0,18.0,25,0.00,,---,0.00,32.00,VWS V14.01,2013-10-26 21:18:00,
2013-10-26 16:23:00,59.9,23.0,30.14,NNW,331,6.0,18.0,24,0.00,,---,0.00,32.00,VWS V14.01,2013-10-26 21:23:00,
2013-10-26 16:28:00,59.6,21.8,30.14,NNW,345,16.0,19.0,23,0.00,,---,0.00,32.00,VWS V14.01,2013-10-26 21:28:00,
2013-10-26 16:30:00,59.3,21.5,30.14,NNE,15,10.0,19.0,23,0.00,,---,0.00,33.00,VWS V14.01,2013-10-26 21:30:00,
2013-10-26 16:33:00,59.3,22.5,30.13,NNW,335,16.0,18.0,24,0.00,,---,0.00,53.00,VWS V14.01,2013-10-26 21:33:00,
2013-10-26 16:38:00,59.6,23.8,30.14,NNW,348,6.0,18.0,25,0.00,,---,0.00,127.00,VWS V14.01,2013-10-26 21:38:00,
2013-10-26 16:43:00,59.5,21.7,30.13,North,355,8.0,22.0,23,0.00,,---,0.00,221.00,VWS V14.01,2013-10-26 21:43:00,
2013-10-26 16:48:00,59.3,22.5,30.14,NW,324,7.0,22.0,24,0.00,,---,0.00,276.00,VWS V14.01,2013-10-26 21:48:00,
2013-10-26 16:53:00,59.6,22.8,30.13,North,5,7.0,22.0,24,0.00,,---,0.00,290.00,VWS V14.01,2013-10-26 21:53:00,
2013-10-26 16:58:00,59.5,22.7,30.13,NNE,20,10.0,22.0,24,0.00,,---,0.00,281.00,VWS V14.01,2013-10-26 21:58:00,
2013-10-26 17:00:00,59.3,22.5,30.13,North,5,4.0,22.0,24,0.00,,---,0.00,276.00,VWS V14.01,2013-10-26 22:00:00,
2013-10-26 17:03:00,59.2,23.4,30.13,North,5,11.0,16.0,25,0.00,,---,0.00,265.00,VWS V14.01,2013-10-26 22:03:00,
2013-10-26 17:08:00,59.2,23.4,30.13,North,5,11.0,16.0,25,0.00,,---,0.00,253.00,VWS V14.01,2013-10-26 22:08:00,
2013-10-26 17:13:00,58.9,23.2,30.13,North,360,8.0,16.0,25,0.00,,---,0.00,237.00,VWS V14.01,2013-10-26 22:13:00,
2013-10-26 17:18:00,58.9,23.2,30.13,North,5,7.0,16.0,25,0.00,,---,0.00,221.00,VWS V14.01,2013-10-26 22:18:00,
2013-10-26 17:23:00,58.9,23.2,30.13,North,355,7.0,16.0,25,0.00,,---,0.00,209.00,VWS V14.01,2013-10-26 22:23:00,
2013-10-26 17:28:00,58.7,23.0,30.13,North,5,11.0,16.0,25,0.00,,---,0.00,192.00,VWS V14.01,2013-10-26 22:28:00,
2013-10-26 17:30:00,58.7,23.0,30.12,NNW,332,7.0,16.0,25,0.00,,---,0.00,190.00,VWS V14.01,2013-10-26 22:30:00,
2013-10-26 17:33:00,58.7,23.0,30.13,North,355,13.0,16.0,25,0.00,,---,0.00,179.00,VWS V14.01,2013-10-26 22:33:00,
2013-10-26 17:38:00,58.6,22.9,30.13,North,5,8.0,16.0,25,0.00,,---,0.00,165.00,VWS V14.01,2013-10-26 22:38:00,
2013-10-26 17:43:00,58.4,22.7,30.12,NW,317,7.0,16.0,25,0.00,,---,0.00,149.00,VWS V14.01,2013-10-26 22:43:00,
2013-10-26 17:48:00,58.3,22.6,30.12,NNW,342,11.0,16.0,25,0.00,,---,0.00,137.00,VWS V14.01,2013-10-26 22:48:00,
2013-10-26 17:53:00,58.1,22.5,30.12,NNW,345,7.0,16.0,25,0.00,,---,0.00,121.00,VWS V14.01,2013-10-26 22:53:00,
2013-10-26 17:58:00,57.8,22.2,30.12,North,355,13.0,16.0,25,0.00,,---,0.00,104.00,VWS V14.01,2013-10-26 22:58:00,
2013-10-26 18:00:00,57.8,22.2,30.12,NNW,334,9.0,16.0,25,0.00,,---,0.00,97.00,VWS V14.01,2013-10-26 23:00:00,
2013-10-26 18:03:00,57.6,23.0,30.12,NNW,344,7.0,12.0,26,0.00,,---,0.00,84.00,VWS V14.01,2013-10-26 23:03:00,
2013-10-26 18:08:00,57.5,22.9,30.12,NNW,346,10.0,12.0,26,0.00,,---,0.00,70.00,VWS V14.01,2013-10-26 23:08:00,
2013-10-26 18:13:00,57.3,22.7,30.12,NNW,337,7.0,12.0,26,0.00,,---,0.00,54.00,VWS V14.01,2013-10-26 23:13:00,
2013-10-26 18:18:00,57.2,23.5,30.12,North,349,3.0,12.0,27,0.00,,---,0.00,39.00,VWS V14.01,2013-10-26 23:18:00,
2013-10-26 18:23:00,56.9,23.3,30.12,North,5,7.0,12.0,27,0.00,,---,0.00,28.00,VWS V14.01,2013-10-26 23:23:00,
2013-10-26 18:28:00,56.5,23.8,30.13,North,355,4.0,12.0,28,0.00,,---,0.00,18.00,VWS V14.01,2013-10-26 23:28:00,
2013-10-26 18:30:00,56.5,23.8,30.13,North,355,7.0,12.0,28,0.00,,---,0.00,16.00,VWS V14.01,2013-10-26 23:30:00,
2013-10-26 18:33:00,56.2,23.5,30.13,North,350,3.0,7.0,28,0.00,,---,0.00,11.00,VWS V14.01,2013-10-26 23:33:00,
2013-10-26 18:38:00,55.9,23.3,30.13,NNW,343,4.0,7.0,28,0.00,,---,0.00,5.00,VWS V14.01,2013-10-26 23:38:00,
2013-10-26 18:43:00,55.6,23.9,30.13,NNW,343,4.0,7.0,29,0.00,,---,0.00,0.00,VWS V14.01,2013-10-26 23:43:00,
2013-10-26 18:48:00,55.3,23.6,30.13,North,360,5.0,8.0,29,0.00,,---,0.00,0.00,VWS V14.01,2013-10-26 23:48:00,
2013-10-26 18:53:00,55.1,23.4,30.13,NNW,342,3.0,8.0,29,0.00,,---,0.00,0.00,VWS V14.01,2013-10-26 23:53:00,
2013-10-26 18:58:00,54.8,24.8,30.13,NNW,347,3.0,8.0,31,0.00,,---,0.00,0.00,VWS V14.01,2013-10-26 23:58:00,
2013-10-26 19:00:00,57.8,22.2,30.12,NNW,334,9.0,16.0,25,0.00,,---,0.00,97.00,VWS V14.01,2013-10-27 00:00:00,
2013-10-26 19:03:00,54.5,24.5,30.13,NNW,347,2.0,5.0,31,0.00,,---,0.00,0.00,VWS V14.01,2013-10-27 00:03:00,
2013-10-26 19:08:00,54.2,24.2,30.14,NNW,347,4.0,6.0,31,0.00,,---,0.00,0.00,VWS V14.01,2013-10-27 00:08:00,
2013-10-26 19:13:00,54.1,24.9,30.14,NNW,347,4.0,6.0,32,0.00,,---,0.00,0.00,VWS V14.01,2013-10-27 00:13:00,
2013-10-26 19:18:00,53.9,24.7,30.14,NNW,347,4.0,6.0,32,0.00,,---,0.00,0.00,VWS V14.01,2013-10-27 00:18:00,
2013-10-26 19:23:00,53.5,25.1,30.14,NNW,347,5.0,6.0,33,0.00,,---,0.00,0.00,VWS V14.01,2013-10-27 00:23:00,
2013-10-26 19:28:00,53.1,25.5,30.14,NNW,347,6.0,6.0,34,0.00,,---,0.00,0.00,VWS V14.01,2013-10-27 00:28:00,
2013-10-26 19:30:00,53.1,25.5,30.14,NNW,341,4.0,6.0,34,0.00,,---,0.00,0.00,VWS V14.01,2013-10-27 00:30:00,
2013-10-26 19:33:00,52.8,25.2,30.14,NNW,342,6.0,6.0,34,0.00,,---,0.00,0.00,VWS V14.01,2013-10-27 00:33:00,
2013-10-26 19:38:00,52.6,25.0,30.14,NNW,347,6.0,7.0,34,0.00,,---,0.00,0.00,VWS V14.01,2013-10-27 00:38:00,
2013-10-26 19:43:00,52.3,24.8,30.14,NNW,343,4.0,7.0,34,0.00,,---,0.00,0.00,VWS V14.01,2013-10-27 00:43:00,
2013-10-26 19:48:00,52.2,25.4,30.14,NNW,344,4.0,7.0,35,0.00,,---,0.00,0.00,VWS V14.01,2013-10-27 00:48:00,
2013-10-26 19:53:00,52.0,25.2,30.14,NNW,344,3.0,7.0,35,0.00,,---,0.00,0.00,VWS V14.01,2013-10-27 00:53:00,
2013-10-26 19:58:00,51.9,25.1,30.14,NNW,344,3.0,7.0,35,0.00,,---,0.00,0.00,VWS V14.01,2013-10-27 00:58:00,
2013-10-26 20:00:00,51.9,25.8,30.15,NNW,344,4.0,7.0,36,0.00,,---,0.00,0.00,VWS V14.01,2013-10-27 01:00:00,
2013-10-26 20:03:00,51.7,25.0,30.14,NNW,344,3.0,5.0,35,0.00,,---,0.00,0.00,VWS V14.01,2013-10-27 01:03:00,
2013-10-26 20:08:00,51.7,25.6,30.15,NNW,344,4.0,5.0,36,0.00,,---,0.00,0.00,VWS V14.01,2013-10-27 01:08:00,
2013-10-26 20:13:00,51.4,24.7,30.14,NNW,344,3.0,5.0,35,0.00,,---,0.00,0.00,VWS V14.01,2013-10-27 01:13:00,
2013-10-26 20:18:00,51.3,25.3,30.15,NNW,344,2.0,5.0,36,0.00,,---,0.00,0.00,VWS V14.01,2013-10-27 01:18:00,
2013-10-26 20:23:00,51.1,25.1,30.14,NNW,344,2.0,5.0,36,0.00,,---,0.00,0.00,VWS V14.01,2013-10-27 01:23:00,
2013-10-26 20:28:00,50.8,25.5,30.14,NNW,344,1.0,5.0,37,0.00,,---,0.00,0.00,VWS V14.01,2013-10-27 01:28:00,
2013-10-26 20:30:00,50.7,25.4,30.14,NNW,344,2.0,5.0,37,0.00,,---,0.00,0.00,VWS V14.01,2013-10-27 01:30:00,
2013-10-26 20:33:00,50.5,25.9,30.14,NNW,344,0.0,2.0,38,0.00,,---,0.00,0.00,VWS V14.01,2013-10-27 01:33:00,
2013-10-26 20:38:00,50.1,26.1,30.14,NNW,344,0.0,2.0,39,0.00,,---,0.00,0.00,VWS V14.01,2013-10-27 01:38:00,
2013-10-26 20:43:00,49.6,26.3,30.14,NNW,344,0.0,2.0,40,0.00,,---,0.00,0.00,VWS V14.01,2013-10-27 01:43:00,
2013-10-26 20:48:00,49.1,26.4,30.14,NNW,344,0.0,2.0,41,0.00,,---,0.00,0.00,VWS V14.01,2013-10-27 01:48:00,
2013-10-26 20:53:00,48.8,26.2,30.14,NNW,344,0.0,2.0,41,0.00,,---,0.00,0.00,VWS V14.01,2013-10-27 01:53:00,
2013-10-26 20:58:00,48.6,26.0,30.14,NNW,344,0.0,2.0,41,0.00,,---,0.00,0.00,VWS V14.01,2013-10-27 01:58:00,
2013-10-26 21:00:00,48.8,26.2,30.14,NNW,344,0.0,2.0,41,0.00,,---,0.00,0.00,VWS V14.01,2013-10-27 02:00:00,
2013-10-26 21:03:00,48.6,26.0,30.14,NNW,344,0.0,0.0,41,0.00,,---,0.00,0.00,VWS V14.01,2013-10-27 02:03:00,
2013-10-26 21:08:00,48.6,26.0,30.14,NNW,344,0.0,0.0,41,0.00,,---,0.00,0.00,VWS V14.01,2013-10-27 02:08:00,
2013-10-26 21:13:00,48.5,27.0,30.15,NNW,344,0.0,0.0,43,0.00,,---,0.00,0.00,VWS V14.01,2013-10-27 02:13:00,
2013-10-26 21:18:00,47.9,27.0,30.15,NNW,344,0.0,0.0,44,0.00,,---,0.00,0.00,VWS V14.01,2013-10-27 02:18:00,
2013-10-26 21:23:00,47.3,26.5,30.15,NNW,344,0.0,0.0,44,0.00,,---,0.00,0.00,VWS V14.01,2013-10-27 02:23:00,
2013-10-26 21:28:00,46.5,28.9,30.15,NNW,344,0.0,0.0,50,0.00,,---,0.00,0.00,VWS V14.01,2013-10-27 02:28:00,
2013-10-26 21:30:00,46.4,28.8,30.15,NNW,344,0.0,0.0,50,0.00,,---,0.00,0.00,VWS V14.01,2013-10-27 02:30:00,
2013-10-26 21:33:00,46.1,29.0,30.15,NNW,344,0.0,0.0,51,0.00,,---,0.00,0.00,VWS V14.01,2013-10-27 02:33:00,
2013-10-26 21:38:00,45.5,29.4,30.15,NNW,344,0.0,0.0,53,0.00,,---,0.00,0.00,VWS V14.01,2013-10-27 02:38:00,
2013-10-26 21:43:00,45.1,28.5,30.14,NNW,344,0.0,0.0,52,0.00,,---,0.00,0.00,VWS V14.01,2013-10-27 02:43:00,
2013-10-26 21:48:00,44.6,27.6,30.15,NNW,344,0.0,0.0,51,0.00,,---,0.00,0.00,VWS V14.01,2013-10-27 02:48:00,
2013-10-26 21:53:00,44.3,28.7,30.15,NNW,344,0.0,0.0,54,0.00,,---,0.00,0.00,VWS V14.01,2013-10-27 02:53:00,
2013-10-26 21:58:00,43.9,30.1,30.15,NNW,344,0.0,0.0,58,0.00,,---,0.00,0.00,VWS V14.01,2013-10-27 02:58:00,
2013-10-26 22:00:00,43.9,30.1,30.15,NNW,344,0.0,0.0,58,0.00,,---,0.00,0.00,VWS V14.01,2013-10-27 03:00:00,
2013-10-26 22:03:00,43.6,30.2,30.15,NNW,344,0.0,0.0,59,0.00,,---,0.00,0.00,VWS V14.01,2013-10-27 03:03:00,
2013-10-26 22:08:00,43.8,30.0,30.15,NNW,344,1.0,1.0,58,0.00,,---,0.00,0.00,VWS V14.01,2013-10-27 03:08:00,
2013-10-26 22:13:00,44.2,30.0,30.15,NNW,344,1.0,2.0,57,0.00,,---,0.00,0.00,VWS V14.01,2013-10-27 03:13:00,
2013-10-26 22:18:00,44.6,30.3,30.15,NNW,344,0.0,2.0,57,0.00,,---,0.00,0.00,VWS V14.01,2013-10-27 03:18:00,
2013-10-26 22:23:00,44.6,29.9,30.15,NNW,344,0.0,2.0,56,0.00,,---,0.00,0.00,VWS V14.01,2013-10-27 03:23:00,
2013-10-26 22:28:00,44.5,30.2,30.15,NNW,344,0.0,2.0,57,0.00,,---,0.00,0.00,VWS V14.01,2013-10-27 03:28:00,
2013-10-26 22:30:00,44.5,30.2,30.15,NNW,344,0.0,2.0,57,0.00,,---,0.00,0.00,VWS V14.01,2013-10-27 03:30:00,
2013-10-26 22:33:00,44.2,30.4,30.15,NNW,344,0.0,1.0,58,0.00,,---,0.00,0.00,VWS V14.01,2013-10-27 03:33:00,
2013-10-26 22:38:00,43.8,30.8,30.15,NNW,344,0.0,2.0,60,0.00,,---,0.00,0.00,VWS V14.01,2013-10-27 03:38:00,
2013-10-26 22:43:00,43.3,30.8,30.15,NNW,344,0.0,2.0,61,0.00,,---,0.00,0.00,VWS V14.01,2013-10-27 03:43:00,
2013-10-26 22:48:00,43.1,31.0,30.15,NNW,344,0.0,2.0,62,0.00,,---,0.00,0.00,VWS V14.01,2013-10-27 03:48:00,
2013-10-26 22:53:00,42.8,31.1,30.15,NNW,344,0.0,2.0,63,0.00,,---,0.00,0.00,VWS V14.01,2013-10-27 03:53:00,
2013-10-26 22:58:00,42.5,31.2,30.15,NNW,344,0.0,2.0,64,0.00,,---,0.00,0.00,VWS V14.01,2013-10-27 03:58:00,
2013-10-26 23:00:00,42.3,31.0,30.15,NNW,344,0.0,2.0,64,0.00,,---,0.00,0.00,VWS V14.01,2013-10-27 04:00:00,
2013-10-26 23:01:00,42.3,31.0,30.15,NNW,344,0.0,0.0,64,0.00,,---,0.00,0.00,VWS V14.01,2013-10-27 04:01:00,
2013-10-26 23:03:00,42.2,30.9,30.15,NNW,344,0.0,1.0,64,0.00,,---,0.00,0.00,VWS V14.01,2013-10-27 04:03:00,
2013-10-26 23:08:00,41.9,31.0,30.15,NNW,344,0.0,1.0,65,0.00,,---,0.00,0.00,VWS V14.01,2013-10-27 04:08:00,
2013-10-26 23:13:00,41.6,30.7,30.15,NNW,344,0.0,1.0,65,0.00,,---,0.00,0.00,VWS V14.01,2013-10-27 04:13:00,
2013-10-26 23:18:00,41.3,30.8,30.15,NNW,344,0.0,1.0,66,0.00,,---,0.00,0.00,VWS V14.01,2013-10-27 04:18:00,
2013-10-26 23:23:00,41.2,30.3,30.15,NNW,344,0.0,2.0,65,0.00,,---,0.00,0.00,VWS V14.01,2013-10-27 04:23:00,
2013-10-26 23:28:00,41.1,30.6,30.15,NNW,344,0.0,2.0,66,0.00,,---,0.00,0.00,VWS V14.01,2013-10-27 04:28:00,
2013-10-26 23:30:00,41.1,31.0,30.15,NNW,344,0.0,2.0,67,0.00,,---,0.00,0.00,VWS V14.01,2013-10-27 04:30:00,
2013-10-26 23:33:00,40.6,31.2,30.14,NNW,344,1.0,2.0,69,0.00,,---,0.00,0.00,VWS V14.01,2013-10-27 04:33:00,
2013-10-26 23:38:00,39.9,30.9,30.14,NNW,344,1.0,2.0,70,0.00,,---,0.00,0.00,VWS V14.01,2013-10-27 04:38:00,
2013-10-26 23:43:00,39.5,31.2,30.14,NNW,344,0.0,2.0,72,0.00,,---,0.00,0.00,VWS V14.01,2013-10-27 04:43:00,
2013-10-26 23:48:00,39.5,31.2,30.14,NNW,344,0.0,2.0,72,0.00,,---,0.00,0.00,VWS V14.01,2013-10-27 04:48:00,
2013-10-26 23:53:00,39.5,31.2,30.14,NNW,344,1.0,2.0,72,0.00,,---,0.00,0.00,VWS V14.01,2013-10-27 04:53:00,
2013-10-26 23:58:00,39.2,30.6,30.14,NNW,344,0.0,2.0,71,0.00,,---,0.00,0.00,VWS V14.01,2013-10-27 04:58:00,